* Astronomy

Members Login
Post Info TOPIC: TNO 2011 KT19


L

Posts: 131433
Date:
TNO 2011 KT19
Permalink  
 


Orbital elements:
2011 KT19
Epoch 2011 May 19.0 TT = JDT 2455700.5                  MPC
M  24.79459              (2000.0)            P               Q
n   0.00678502     Peri.  307.96865     -0.85382775     -0.01223152
a  27.6334649      Node   237.65993     +0.02105716     -0.99971719
e   0.4059778      Incl.   38.02126     -0.52012956     -0.02039414
P 145              H    8.5           G   0.15
From 18 observations 2011 May 31-June 2.

MPEC 2011 - L09



__________________
Page 1 of 1  sorted by
Quick Reply

Please log in to post quick replies.



Create your own FREE Forum
Report Abuse
Powered by ActiveBoard